TimeCDT,TemperatureF,Dew PointF,Humidity,Sea Level PressureIn,VisibilityMPH,Wind Direction,Wind SpeedMPH,Gust SpeedMPH,PrecipitationIn,Events,Conditions,WindDirDegrees,DateUTC
12:52 AM,48.9,48.0,97,30.09,10.0,SW,3.5,-,N/A,,Clear,220,2013-05-11 05:52:00
1:52 AM,46.9,46.9,100,30.09,8.0,Calm,Calm,-,N/A,,Clear,0,2013-05-11 06:52:00
2:52 AM,46.0,46.0,100,30.09,6.0,SSW,3.5,-,N/A,,Clear,210,2013-05-11 07:52:00
3:52 AM,46.9,46.0,97,30.08,5.0,Calm,Calm,-,N/A,,Clear,0,2013-05-11 08:52:00
4:52 AM,45.0,45.0,100,30.09,5.0,Calm,Calm,-,N/A,,Clear,0,2013-05-11 09:52:00
5:52 AM,44.1,44.1,100,30.10,3.0,Calm,Calm,-,N/A,,Clear,0,2013-05-11 10:52:00
6:52 AM,53.1,46.9,80,30.14,10.0,North,13.8,23.0,N/A,,Clear,10,2013-05-11 11:52:00
7:52 AM,55.0,42.1,62,30.18,10.0,NNE,15.0,25.3,N/A,,Clear,30,2013-05-11 12:52:00
8:52 AM,57.9,37.0,46,30.21,10.0,NNE,18.4,27.6,N/A,,Partly Cloudy,20,2013-05-11 13:52:00
9:52 AM,60.1,34.0,38,30.23,10.0,NNE,21.9,31.1,N/A,,Clear,20,2013-05-11 14:52:00
10:52 AM,62.1,35.1,37,30.26,10.0,NNE,16.1,27.6,N/A,,Clear,20,2013-05-11 15:52:00
11:52 AM,63.0,37.0,38,30.27,10.0,NNE,19.6,26.5,N/A,,Clear,30,2013-05-11 16:52:00
12:52 PM,64.0,36.0,35,30.27,10.0,North,9.2,19.6,N/A,,Clear,350,2013-05-11 17:52:00
1:52 PM,66.9,33.1,28,30.26,10.0,North,12.7,21.9,N/A,,Clear,350,2013-05-11 18:52:00
2:52 PM,66.9,32.0,27,30.25,10.0,North,12.7,20.7,N/A,,Clear,10,2013-05-11 19:52:00
3:52 PM,68.0,32.0,26,30.24,10.0,Variable,5.8,20.7,N/A,,Clear,0,2013-05-11 20:52:00
4:52 PM,66.9,30.9,26,30.24,10.0,North,13.8,25.3,N/A,,Clear,350,2013-05-11 21:52:00
5:52 PM,66.0,30.0,26,30.24,10.0,North,10.4,18.4,N/A,,Clear,10,2013-05-11 22:52:00
6:52 PM,64.0,28.9,27,30.23,10.0,North,9.2,17.3,N/A,,Clear,10,2013-05-11 23:52:00
7:52 PM,61.0,26.1,26,30.23,10.0,North,9.2,-,N/A,,Clear,10,2013-05-12 00:52:00
8:52 PM,55.9,27.0,33,30.25,10.0,North,4.6,-,N/A,,Clear,360,2013-05-12 01:52:00
9:52 PM,51.1,30.0,44,30.26,10.0,Calm,Calm,-,N/A,,Clear,0,2013-05-12 02:52:00
10:52 PM,46.0,34.0,63,30.28,10.0,Calm,Calm,-,N/A,,Clear,0,2013-05-12 03:52:00
11:52 PM,42.1,35.1,76,30.29,10.0,Calm,Calm,-,N/A,,Clear,0,2013-05-12 04:52:00